Starlink 30313

operational
NORAD ID: 57676 Int'l Des: 2023-124 Owner: SPXS Country: US Constellation: starlink
LEOCIRCULAR

Über Starlink 30313

Beschreibung wird geladen...

Live-Position

3D-Globus wird geladen...

Nächste Überflüge

Höhenverlauf

Altitude vs Time

uPlot chart will show altitude changes over time

Zweizeiliger Elementsatz

1 57676U 23124P 26035.10202161 .00000120 00000-0 16180-4 0 9995
2 57676 53.1628 2.9961 0001448 103.3213 256.7949 15.30187146138421
Epoch: 4. Feb. 2026 • Age: 24 hours

Aktueller Status

Höhe 478.1 km
Geschwindigkeit 7.63 km/s
Subsatellitenpunkt -10.77°S, 9.11°E
Startdatum 22. Aug. 2023
Alter 2.4 years
Typ internet

Technische Details

Klassifizierung Payload
Masse 730.00 kg
Trockenmasse 700.00 kg
Gesamtmasse 730.00 kg
Länge 0.30 m
Durchmesser 4.10 m
Spannweite 29.00 m
Form Box + pan
Hersteller SPXS
Bus-Typ Starlink V2M
Phasenstatus In Orbit
Besitzer/Staat SPXS/US

Große Konstellationen

Loading constellations...